VOZ1752 YBHM-YBCS

Flight info

Callsign VOZ1752
Flight time 0h 56m
Altitude 34000
Route OVRON Q67 CS
Aircraft B738/M-SDE2E3FGHIRWXY/LB1

Departure

Time 2026-04-24 11:18
Airport Hamilton Island Airport (YBHM)

Arrival

Time 2026-04-24 12:14
Airport Cairns International Airport (YBCS)
Time Latitude Longitude Altitude Speed Heading
2026-04-24 11:07 -20.35232 148.94925 24 ft 0 kts 246°
2026-04-24 11:15 -20.35236 148.94900 23 ft 5 kts 278°
2026-04-24 11:16 -20.35236 148.94856 23 ft 6 kts 245°
2026-04-24 11:16 -20.35256 148.94814 23 ft 6 kts 252°
2026-04-24 11:16 -20.35246 148.94766 23 ft 7 kts 309°
2026-04-24 11:16 -20.35203 148.94727 23 ft 8 kts 322°
2026-04-24 11:17 -20.35155 148.94696 24 ft 8 kts 346°
2026-04-24 11:17 -20.35097 148.94688 23 ft 7 kts 327°
2026-04-24 11:17 -20.35099 148.94659 23 ft 3 kts 197°
2026-04-24 11:17 -20.35141 148.94676 23 ft 12 kts 143°
2026-04-24 11:18 -20.35399 148.94885 24 ft 89 kts 142°
2026-04-24 11:18 -20.36107 148.95450 63 ft 158 kts 141°
2026-04-24 11:18 -20.36890 148.96140 1226 ft 141 kts 137°
2026-04-24 11:18 -20.37678 148.96756 1937 ft 148 kts 141°
2026-04-24 11:19 -20.38529 148.97388 2500 ft 157 kts 140°
2026-04-24 11:19 -20.39438 148.98116 3079 ft 167 kts 139°
2026-04-24 11:19 -20.40396 148.98892 3580 ft 184 kts 139°
2026-04-24 11:19 -20.41233 148.99937 4172 ft 194 kts 113°
2026-04-24 11:20 -20.41373 149.01382 4837 ft 207 kts 81°
2026-04-24 11:20 -20.40697 149.02777 5525 ft 223 kts 58°
2026-04-24 11:20 -20.39501 149.03961 5995 ft 251 kts 39°
2026-04-24 11:20 -20.37872 149.04781 6592 ft 274 kts 17°
2026-04-24 11:21 -20.35918 149.04695 7236 ft 296 kts 345°
2026-04-24 11:21 -20.34164 149.03511 7988 ft 307 kts 312°
2026-04-24 11:21 -20.33174 149.01512 8885 ft 305 kts 280°
2026-04-24 11:21 -20.33211 148.99303 9668 ft 302 kts 252°
2026-04-24 11:22 -20.33740 148.97162 10521 ft 303 kts 259°
2026-04-24 11:22 -20.33675 148.94871 11040 ft 320 kts 283°
2026-04-24 11:22 -20.32620 148.92741 11557 ft 335 kts 311°
2026-04-24 11:22 -20.30837 148.91103 12070 ft 347 kts 324°
2026-04-24 11:23 -20.28780 148.89653 12582 ft 359 kts 326°
2026-04-24 11:23 -20.26712 148.88193 13334 ft 362 kts 324°
2026-04-24 11:23 -20.24640 148.86633 14131 ft 364 kts 322°
2026-04-24 11:23 -20.22606 148.85013 14848 ft 368 kts 320°
2026-04-24 11:24 -20.20601 148.83356 15569 ft 370 kts 319°
2026-04-24 11:24 -20.18583 148.81656 16279 ft 372 kts 319°
2026-04-24 11:24 -20.16538 148.79921 16983 ft 374 kts 318°
2026-04-24 11:24 -20.14520 148.78207 17662 ft 376 kts 318°
2026-04-24 11:25 -20.12451 148.76453 18277 ft 380 kts 318°
2026-04-24 11:25 -20.10377 148.74696 18939 ft 383 kts 318°
2026-04-24 11:25 -20.08285 148.72929 19581 ft 385 kts 317°
2026-04-24 11:25 -20.06177 148.71152 20191 ft 387 kts 318°
2026-04-24 11:26 -20.04063 148.69373 20793 ft 391 kts 318°
2026-04-24 11:26 -20.01927 148.67574 21372 ft 393 kts 317°
2026-04-24 11:26 -19.99797 148.65781 21970 ft 395 kts 317°
2026-04-24 11:26 -19.97636 148.63962 22502 ft 398 kts 317°
2026-04-24 11:27 -19.95451 148.62123 23026 ft 401 kts 317°
2026-04-24 11:27 -19.93255 148.60275 23487 ft 405 kts 317°
2026-04-24 11:27 -19.91039 148.58412 24027 ft 406 kts 316°
2026-04-24 11:27 -19.88824 148.56551 24527 ft 409 kts 316°
2026-04-24 11:28 -19.86590 148.54672 24958 ft 412 kts 315°
2026-04-24 11:28 -19.84328 148.52771 25386 ft 416 kts 315°
2026-04-24 11:28 -19.82082 148.50884 25896 ft 416 kts 315°
2026-04-24 11:28 -19.79778 148.48949 26314 ft 419 kts 314°
2026-04-24 11:29 -19.77495 148.47034 26638 ft 424 kts 314°
2026-04-24 11:29 -19.75165 148.45076 27077 ft 426 kts 314°
2026-04-24 11:29 -19.72824 148.43114 27469 ft 429 kts 313°
2026-04-24 11:29 -19.70461 148.41132 27792 ft 433 kts 313°
2026-04-24 11:30 -19.68117 148.39169 28270 ft 432 kts 313°
2026-04-24 11:30 -19.65748 148.37190 28702 ft 433 kts 312°
2026-04-24 11:30 -19.63381 148.35208 28957 ft 437 kts 312°
2026-04-24 11:30 -19.60965 148.33183 29293 ft 441 kts 312°
2026-04-24 11:31 -19.58556 148.31165 29704 ft 442 kts 312°
2026-04-24 11:31 -19.56148 148.29149 30113 ft 443 kts 311°
2026-04-24 11:31 -19.53719 148.27119 30526 ft 443 kts 311°
2026-04-24 11:31 -19.51337 148.25139 31225 ft 436 kts 311°
2026-04-24 11:32 -19.48954 148.23160 31753 ft 433 kts 311°
2026-04-24 11:32 -19.46597 148.21199 32250 ft 430 kts 311°
2026-04-24 11:32 -19.44233 148.19229 32785 ft 426 kts 311°
2026-04-24 11:32 -19.41919 148.17302 33337 ft 424 kts 310°
2026-04-24 11:33 -19.39601 148.15367 33776 ft 423 kts 310°
2026-04-24 11:33 -19.37282 148.13428 34102 ft 424 kts 310°
2026-04-24 11:33 -19.32530 148.09444 34159 ft 432 kts 310°
2026-04-24 11:34 -19.27782 148.05482 34158 ft 433 kts 310°
2026-04-24 11:34 -19.23069 148.01561 34157 ft 433 kts 310°
2026-04-24 11:35 -19.18317 147.97615 34154 ft 430 kts 310°
2026-04-24 11:35 -19.13613 147.93713 34156 ft 430 kts 310°
2026-04-24 11:36 -19.08874 147.89775 34154 ft 433 kts 311°
2026-04-24 11:36 -19.04133 147.85841 34153 ft 431 kts 311°
2026-04-24 11:37 -18.99413 147.81932 34151 ft 430 kts 311°
2026-04-24 11:37 -18.94667 147.77994 34152 ft 434 kts 311°
2026-04-24 11:38 -18.89923 147.74068 34150 ft 432 kts 311°
2026-04-24 11:38 -18.85205 147.70171 34148 ft 432 kts 311°
2026-04-24 11:39 -18.80407 147.66202 34147 ft 431 kts 312°
2026-04-24 11:39 -18.75686 147.62305 34147 ft 432 kts 311°
2026-04-24 11:40 -18.70947 147.58394 34146 ft 433 kts 312°
2026-04-24 11:40 -18.66210 147.54488 34146 ft 431 kts 312°
2026-04-24 11:41 -18.61471 147.50584 34147 ft 431 kts 312°
2026-04-24 11:41 -18.56716 147.46663 34144 ft 433 kts 312°
2026-04-24 11:42 -18.51982 147.42772 34142 ft 428 kts 312°
2026-04-24 11:42 -18.47240 147.38869 34141 ft 433 kts 312°
2026-04-24 11:43 -18.42531 147.35002 34138 ft 429 kts 312°
2026-04-24 11:43 -18.37780 147.31096 34141 ft 433 kts 313°
2026-04-24 11:44 -18.33051 147.27219 34140 ft 431 kts 313°
2026-04-24 11:44 -18.28320 147.23340 34136 ft 431 kts 313°
2026-04-24 11:45 -18.23558 147.19435 34138 ft 432 kts 313°
2026-04-24 11:45 -18.18854 147.15590 34135 ft 428 kts 313°
2026-04-24 11:46 -18.14105 147.11699 34134 ft 430 kts 313°
2026-04-24 11:46 -18.09373 147.07831 34133 ft 427 kts 313°
2026-04-24 11:47 -18.04676 147.03993 34132 ft 429 kts 313°
2026-04-24 11:47 -17.99957 147.00137 34127 ft 431 kts 313°
2026-04-24 11:48 -17.95210 146.96268 34136 ft 431 kts 313°
2026-04-24 11:48 -17.90466 146.92401 34128 ft 431 kts 313°
2026-04-24 11:49 -17.85730 146.88539 34131 ft 432 kts 313°
2026-04-24 11:49 -17.80957 146.84654 34127 ft 433 kts 314°
2026-04-24 11:50 -17.76218 146.80803 33991 ft 425 kts 313°
2026-04-24 11:50 -17.73899 146.78929 33586 ft 418 kts 313°
2026-04-24 11:50 -17.71602 146.77069 33026 ft 416 kts 313°
2026-04-24 11:51 -17.69323 146.75220 32389 ft 415 kts 313°
2026-04-24 11:51 -17.67055 146.73373 31756 ft 417 kts 313°
2026-04-24 11:51 -17.64741 146.71489 31308 ft 420 kts 313°
2026-04-24 11:51 -17.62402 146.69580 30806 ft 429 kts 313°
2026-04-24 11:52 -17.60028 146.67644 30291 ft 433 kts 313°
2026-04-24 11:52 -17.57671 146.65733 29777 ft 429 kts 313°
2026-04-24 11:52 -17.55324 146.63840 29266 ft 425 kts 313°
2026-04-24 11:52 -17.52984 146.61955 28756 ft 421 kts 313°
2026-04-24 11:53 -17.50680 146.60098 28274 ft 417 kts 313°
2026-04-24 11:53 -17.48406 146.58261 27776 ft 414 kts 313°
2026-04-24 11:53 -17.46116 146.56409 27266 ft 411 kts 313°
2026-04-24 11:53 -17.43880 146.54599 26769 ft 407 kts 314°
2026-04-24 11:54 -17.41633 146.52780 26259 ft 404 kts 314°
2026-04-24 11:54 -17.39431 146.50996 25762 ft 402 kts 315°
2026-04-24 11:54 -17.37215 146.49203 25255 ft 399 kts 315°
2026-04-24 11:54 -17.35053 146.47455 24752 ft 396 kts 315°
2026-04-24 11:55 -17.32880 146.45699 24261 ft 393 kts 316°
2026-04-24 11:55 -17.30732 146.43961 23762 ft 390 kts 316°
2026-04-24 11:55 -17.28587 146.42229 23272 ft 387 kts 317°
2026-04-24 11:55 -17.26468 146.40517 22774 ft 384 kts 317°
2026-04-24 11:56 -17.24374 146.38826 22273 ft 381 kts 317°
2026-04-24 11:56 -17.22283 146.37138 21778 ft 378 kts 317°
2026-04-24 11:56 -17.20206 146.35465 21282 ft 375 kts 318°
2026-04-24 11:56 -17.18152 146.33809 20794 ft 372 kts 318°
2026-04-24 11:57 -17.16115 146.32169 20307 ft 370 kts 318°
2026-04-24 11:57 -17.14062 146.30515 19810 ft 367 kts 318°
2026-04-24 11:57 -17.12057 146.28899 19324 ft 364 kts 318°
2026-04-24 11:57 -17.10060 146.27290 18828 ft 361 kts 318°
2026-04-24 11:58 -17.08082 146.25694 18342 ft 358 kts 319°
2026-04-24 11:58 -17.06120 146.24112 17868 ft 356 kts 318°
2026-04-24 11:58 -17.04161 146.22533 17375 ft 353 kts 319°
2026-04-24 11:58 -17.02226 146.20975 16913 ft 351 kts 319°
2026-04-24 11:59 -17.00301 146.19426 16435 ft 348 kts 319°
2026-04-24 11:59 -16.98389 146.17889 15960 ft 347 kts 319°
2026-04-24 11:59 -16.96472 146.16347 15484 ft 345 kts 320°
2026-04-24 11:59 -16.94598 146.14842 15012 ft 343 kts 320°
2026-04-24 12:00 -16.92698 146.13316 14537 ft 341 kts 320°
2026-04-24 12:00 -16.90827 146.11813 14071 ft 339 kts 320°
2026-04-24 12:00 -16.88976 146.10326 13611 ft 336 kts 321°
2026-04-24 12:00 -16.87124 146.08839 13148 ft 334 kts 321°
2026-04-24 12:01 -16.85288 146.07364 12685 ft 333 kts 321°
2026-04-24 12:01 -16.83445 146.05885 12218 ft 331 kts 321°
2026-04-24 12:01 -16.81620 146.04421 11763 ft 330 kts 322°
2026-04-24 12:01 -16.79806 146.02966 11310 ft 328 kts 322°
2026-04-24 12:02 -16.78019 146.01533 10895 ft 326 kts 322°
2026-04-24 12:02 -16.76193 146.00070 10473 ft 331 kts 323°
2026-04-24 12:02 -16.74389 145.98625 10222 ft 323 kts 323°
2026-04-24 12:02 -16.72625 145.97212 10115 ft 310 kts 323°
2026-04-24 12:03 -16.70949 145.95869 9860 ft 304 kts 323°
2026-04-24 12:03 -16.69331 145.94423 9409 ft 303 kts 316°
2026-04-24 12:03 -16.67907 145.92864 9077 ft 297 kts 313°
2026-04-24 12:03 -16.66517 145.91228 8666 ft 298 kts 311°
2026-04-24 12:04 -16.65167 145.89618 8292 ft 297 kts 312°
2026-04-24 12:04 -16.63817 145.87981 7909 ft 297 kts 308°
2026-04-24 12:04 -16.62743 145.86163 7565 ft 295 kts 293°
2026-04-24 12:04 -16.62033 145.84149 7204 ft 294 kts 286°
2026-04-24 12:05 -16.61473 145.82127 6932 ft 289 kts 284°
2026-04-24 12:05 -16.60930 145.80142 6841 ft 278 kts 285°
2026-04-24 12:05 -16.60416 145.78261 6761 ft 267 kts 282°
2026-04-24 12:05 -16.60054 145.76388 6565 ft 261 kts 275°
2026-04-24 12:06 -16.59934 145.74504 6256 ft 261 kts 266°
2026-04-24 12:06 -16.60026 145.72626 5955 ft 259 kts 261°
2026-04-24 12:06 -16.60245 145.70781 5646 ft 256 kts 257°
2026-04-24 12:06 -16.60574 145.68938 5265 ft 255 kts 253°
2026-04-24 12:07 -16.61013 145.67201 5065 ft 244 kts 248°
2026-04-24 12:07 -16.61691 145.65619 4757 ft 233 kts 227°
2026-04-24 12:07 -16.62906 145.64642 4465 ft 211 kts 191°
2026-04-24 12:07 -16.64268 145.64494 4323 ft 190 kts 168°
2026-04-24 12:08 -16.65499 145.64777 4181 ft 173 kts 150°
2026-04-24 12:08 -16.66536 145.65334 4060 ft 161 kts 148°
2026-04-24 12:08 -16.67534 145.65814 3901 ft 154 kts 150°
2026-04-24 12:08 -16.68512 145.66254 3756 ft 148 kts 149°
2026-04-24 12:09 -16.69459 145.66685 3613 ft 152 kts 150°
2026-04-24 12:09 -16.70432 145.67125 3410 ft 151 kts 151°
2026-04-24 12:09 -16.71398 145.67555 3199 ft 147 kts 151°
2026-04-24 12:09 -16.72347 145.67979 3014 ft 147 kts 150°
2026-04-24 12:10 -16.73292 145.68405 2811 ft 148 kts 150°
2026-04-24 12:10 -16.74233 145.68826 2616 ft 148 kts 150°
2026-04-24 12:10 -16.75182 145.69249 2414 ft 145 kts 151°
2026-04-24 12:11 -16.76946 145.70041 2057 ft 127 kts 151°
2026-04-24 12:11 -16.77737 145.70393 1868 ft 121 kts 151°
2026-04-24 12:11 -16.78508 145.70744 1736 ft 121 kts 150°
2026-04-24 12:11 -16.79294 145.71095 1572 ft 122 kts 152°
2026-04-24 12:12 -16.80074 145.71446 1412 ft 124 kts 152°
2026-04-24 12:12 -16.81142 145.71925 1191 ft 124 kts 153°
2026-04-24 12:12 -16.81672 145.72160 1076 ft 124 kts 153°
2026-04-24 12:12 -16.82470 145.72517 908 ft 125 kts 153°
2026-04-24 12:13 -16.83271 145.72882 741 ft 125 kts 155°
2026-04-24 12:13 -16.84075 145.73238 576 ft 125 kts 156°
2026-04-24 12:13 -16.84869 145.73596 410 ft 126 kts 155°
2026-04-24 12:13 -16.85687 145.73961 261 ft 127 kts 158°
2026-04-24 12:14 -16.86517 145.74332 89 ft 129 kts 157°
2026-04-24 12:14 -16.87317 145.74687 17 ft 111 kts 157°
2026-04-24 12:14 -16.87823 145.74916 18 ft 39 kts 156°
2026-04-24 12:14 -16.87979 145.74988 19 ft 19 kts 156°
2026-04-24 12:15 -16.88149 145.75064 20 ft 34 kts 156°
2026-04-24 12:15 -16.88335 145.75150 20 ft 19 kts 150°
2026-04-24 12:15 -16.88345 145.75252 20 ft 14 kts 68°
2026-04-24 12:15 -16.88274 145.75307 19 ft 13 kts 349°
2026-04-24 12:16 -16.88167 145.75262 18 ft 21 kts 337°
2026-04-24 12:16 -16.88020 145.75195 17 ft 22 kts 336°
2026-04-24 12:16 -16.87920 145.75172 16 ft 10 kts 30°
2026-04-24 12:16 -16.87869 145.75223 17 ft 9 kts 53°
2026-04-24 12:17 -16.87842 145.75281 18 ft 7 kts 67°
2026-04-24 12:17 -16.87831 145.75310 19 ft 0 kts 68°